Retour au catalogue

TVSAT 2

ActifCommunicationsGEO
NORAD 20168·PAYLOAD·🇩🇪 Germany

Lancé Aug 8, 1989 depuis Guiana Space Centre

Loading…

TLE

FraisSource: Space-Track

Époque: Sep 13, 2026, 17:56 UTC

1 20168U 89062A   26256.74782031 -.00000028  00000-0  00000-0 0  9996
2 20168  14.6894 355.0962 0009706 209.5249 131.7507  0.99839063135385

Suivez TVSAT 2 en temps réel avec AllMySat

Download on the App Store